www.pogodaiklimat.ru

Погода и климат >> Архив погоды >> Индия >> Чхаттисгарх >> Пендра-роуд


ПОГОДА в Пендра-роуде

  • Прогноз погоды в Пендра-роуде
  • Монитор погоды в Пендра-роуде

АРХИВ ПОГОДЫ в Пендра-роуде

Время (UTC), дата Ветер
(напр.,м/с)
 
Видим.   Явления Облачность Т
(С)
Тd
(С)
f
(%)
Тe
(С)
Тes
(С)
Комфортность P
(гПа)
Po
(гПа)
Тmin
(С)
Tmax
(С)
R
(мм)
R24
(мм)
S
(см)
12 14.05 штиль 0 4000 м 6/6 600 м
[Cu Sc]
+35.4 +13.7 27 +36 +37 очень
жарко
1000.2 934.4 +39.0
15 14.05 штиль 0 4000 м ясно +30.8 +13.5 35 +32 +32 жарко 1003.5 936.2
18 14.05 штиль 0 4000 м 3/1 600 м
[Cu med, cong Ci fib]
+27.8 +14.4 44 +30 +30 жарко 1004.7 936.9
21 14.05 штиль 0 4000 м 3/0
[Ci fib]
+26.8 +13.5 44 +29 +29 жарко 1004.4 936.4
00 15.05 штиль 0 4000 м 3/0
[As op Ci fib]
+26.0 +13.2 45 +28 +28 жарко 1005.2 937.0
03 15.05 штиль 0 4000 м ясно +31.0 +13.8 35 +32 +45 жарко 1006.3 939.0 +25.7
06 15.05 ЮВ 1 4000 м 1/1 750 м
[Cu hum]
+38.4 +10.3 18 +37 +60 опасность
солнечного
удара
1004.5 939.0
09 15.05 С 2 4000 м 5/5 600 м
[Sc diur, vesp]
+38.0 +9.0 17 +36 +44 очень
жарко
1002.2 936.7
12 15.05 С 1 4000 м 4/4 750 м
[Sc diur, vesp]
+37.6 +10.5 20 +37 +38 очень
жарко
1001.0 935.5 +40.5
15 15.05 штиль 0 4000 м ясно +31.6 +13.8 34 +33 +33 жарко 1003.6 936.8
18 15.05 штиль 0 4000 м ясно +29.0 +13.9 40 +31 +31 жарко 1005.7 938.0
21 15.05 штиль 0 4000 м ясно +28.0 +13.7 41 +30 +30 жарко 1005.0 937.3
00 16.05 штиль 0 4000 м ясно +26.4 +13.3 44 +28 +28 жарко 1005.6 937.4
03 16.05 штиль 0 4000 м ясно +31.6 +13.8 34 +33 +46 жарко 1006.5 939.4 +25.2 +40.5
06 16.05 штиль 0 4000 м ясно +38.6 +12.7 21 +38 +68 опасность
солнечного
удара
1004.2 938.8
09 16.05 ЮВ 1 4000 м 6/6 600 м
[Sc diur, vesp]
+38.4 +12.4 21 +38 +45 очень
жарко
1001.8 936.5
12 16.05 штиль 0 4000 м 3/3 600 м
[Sc]
+36.4 +16.0 30 +38 +40 очень
душно
1002.2 936.5 +39.9
15 16.05 ЮВ 1 4000 м 3/3 600 м
[Sc]
+32.6 +13.9 32 +34 +34 очень
жарко
1004.2 937.4
18 16.05 штиль 0 4000 м 3/3 600 м
[Sc]
+29.6 +15.1 41 +32 +32 душно 1005.3 937.8
21 16.05 штиль 0 4000 м 3/3 600 м
[Sc]
+29.0 +14.7 42 +31 +31 жарко 1005.0 937.3
00 17.05 штиль 0 4000 м 1/1 750 м
[Cu hum]
+28.0 +14.6 44 +30 +30 жарко 1005.4 937.5
03 17.05 штиль 0 4000 м ясно +31.0 +16.6 42 +34 +47 душно 1005.9 938.7 +26.7
06 17.05 штиль 0 4000 м 4/4 750 м
[Sc diur, vesp]
+38.8 +14.0 23 +39 +57 опасность
солнечного
удара
1004.0 938.6
09 17.05 С 1 4000 м 4/4 750 м
[Sc diur, vesp]
+40.2 +12.5 19 +40 +50 очень
жарко
1001.1 936.4
12 17.05 С 1 4000 м 3/3 600 м
[Cu med, cong]
+38.8 +12.1 20 +38 +39 очень
жарко
1000.1 934.9 +40.8
15 17.05 штиль 0 4000 м ясно +32.0 +13.9 33 +33 +33 жарко 1003.3 936.5
18 17.05 штиль 0 4000 м ясно +30.0 +13.2 36 +31 +31 жарко 1004.3 937.0
21 17.05 штиль 0 4000 м ясно +29.2 +12.9 37 +31 +31 жарко 1003.8 936.5
00 18.05 штиль 0 4000 м ясно +27.6 +12.4 39 +29 +29 жарко 1004.1 936.3
03 18.05 С 2 4000 м ясно +33.2 +11.6 27 +33 +43 жарко 1005.5 938.9 +26.2
06 18.05 С 2 4000 м ясно +37.4 +11.3 21 +37 +58 опасность
солнечного
удара
1004.7 939.0
09 18.05 СЗ 2 4000 м 4/4 750 м
[Cu med, cong]
+39.4 +8.8 16 +38 +47 очень
жарко
1001.6 936.5
12 18.05 СЗ 2 4000 м 1/1 750 м
[Cu hum]
+37.8 +9.8 18 +36 +38 очень
жарко
1001.3 935.8 +40.1
15 18.05 штиль 0 4000 м ясно +32.0 +12.6 31 +33 +33 жарко 1004.5 937.5
18 18.05 штиль 0 4000 м ясно +28.4 +11.4 35 +29 +29 жарко 1005.9 938.2
21 18.05 штиль 0 4000 м ясно +27.6 +11.6 37 +29 +29 жарко 1002.6 937.0
00 19.05 штиль 0 4000 м 4/0
[Ac trans]
+26.2 +11.8 41 +28 +28 жарко 1005.9 937.7
03 19.05 штиль 0 4000 м ясно +30.4 +13.8 36 +32 +45 жарко 1006.9 939.5 +25.1
06 19.05 штиль 0 4000 м 1/1 750 м
[Cu hum]
+36.6 +10.3 20 +35 +62 опасность
солнечного
удара
1005.8 939.2
09 19.05 С 1 4000 м 6/5 600 м
[Sc diur, vesp Ac trans]
+38.2 +12.0 21 +38 +45 очень
жарко
1002.6 937.2
12 19.05 З 1 4000 м 8/8 600 м
[Sc diur, vesp]
+37.6 +9.4 18 +36 +36 очень
жарко
1002.2 936.7 +38.6
15 19.05 штиль 0 4000 м ясно +32.0 +13.5 33 +33 +33 жарко 1005.4 938.4
18 19.05 штиль 0 4000 м 1/0
[Ac trans]
+29.8 +13.8 38 +32 +32 душно 1006.4 938.8
21 19.05 штиль 0 4000 м ясно +27.6 +12.9 40 +29 +29 жарко 1006.1 938.2
00 20.05 С 1 4000 м 5/4 600 м
[Cu med, cong Ac trans]
+26.8 +13.0 42 +28 +28 жарко 1007.4 939.2
03 20.05 штиль 0 4000 м ясно +31.6 +14.2 35 +33 +46 жарко 1007.1 940.0 +26.2
06 20.05 штиль 0 4000 м ясно +37.6 +13.5 24 +38 +67 опасность
солнечного
удара
1006.1 940.3
09 20.05 штиль 0 4000 м 8/5 600 м
[Cu Sc As op]
+37.8 +12.3 22 +37 +43 очень
жарко
1003.7 938.0
12 20.05 штиль 0 4000 м 1/1 600 м
[Cu med, cong]
+37.6 +13.9 24 +38 +40 очень
жарко
1002.0 936.5 +39.7
15 20.05 штиль 0 4000 м 3/0
[Ac trans]
+31.8 +14.1 34 +33 +33 жарко 1004.9 937.9
18 20.05 штиль 0 4000 м ясно +29.2 +13.4 38 +31 +31 жарко 1006.5 938.8
21 20.05 штиль 0 4000 м ясно +28.4 +13.1 39 +30 +30 жарко 1005.4 937.9
00 21.05 штиль 0 4000 м ясно +26.2 +11.4 40 +27 +27 жарко 1006.0 937.8
03 21.05 штиль 0 4000 м ясно +31.4 +13.5 34 +33 +46 жарко 1006.9 939.8 +25.2
06 21.05 штиль 0 4000 м ясно +39.2 +10.2 18 +38 +67 опасность
солнечного
удара
1005.0 939.6
09 21.05 штиль 0 4000 м 3/3
[Cu hum]
+40.4 +9.1 15 +38 +53 опасность
солнечного
удара
1002.2 937.2

 

Местоположение метеостанции Пендра-роуд (Чхаттисгарх, Индия): широта 22.77 долгота 81.90 высота над уровнем моря 625 м.

В архиве по умолчанию представлена погода в Пендра-роуде за последнюю неделю. Архивные данные за месяц целиком и за предыдущие месяцы, начиная с января 2011 года, Вы можете получить, выбрав интересующий диапазон дат из раскрывающегося списка и нажав кнопку "Ввод!".


*Определитесь, кто Вы:
робот инопланетянин человек

Внимание! Время в таблицах - всемирное. Для получения местного времени необходимо прибавить поправку, которая равна 5.5 ч.

Смотрите также архив погоды в соседних городах и на ближайших метеорологических станциях:

Погода в Райпур аэропорту (Чхаттисгарх, Индия) (65 км)
Погода в Биласпуре (Чхаттисгарх, Индия) (80 км)
Погода в Умарии (Мадхья-Прадеш, Индия) (134 км)
Погода в Амбикапуре (Чхаттисгарх, Индия) (145 км)
Погода в Малейнджкханде (Мадхья-Прадеш, Индия) (150 км)
Погода в Мандле (Мадхья-Прадеш, Индия) (158 км)
Погода в Райпуре (Чхаттисгарх, Индия) (173 км)
Погода в Сидхи (Мадхья-Прадеш, Индия) (184 км)
Погода в Дурге (Чхаттисгарх, Индия) (188 км)
Погода в Реве (Мадхья-Прадеш, Индия) (205 км)

Пояснения к столбцам:

Ветер - указаны скорость ветра в м/с - средняя за 10 мин, порывы в срок и между сроками (в фигурных скобках) и направление, откуда дует ветер: С - северный, СВ - северо-восточный, В - восточный, ЮВ - юго-восточный, Ю - южный, ЮЗ - юго-западный, З - западный, СЗ - северо-западный.
Видимость - горизонтальная дальность видимости в метрах или километрах. При видимости от 1 до 10 км при отсутствии осадков обычно наблюдается дымка, при ухудшении видимости до 1 км и менее - туман. В сухую погоду видимость может ухудшаться дымом, пылью или мглою.
Явления - указаны атмосферные явления, наблюдавшиеся в срок или в последний час перед сроком; фигурными скобками обозначены явления, наблюдавшиеся между сроками (за 1-3 часа до срока); квадратными скобками обозначены град или гололедные отложения с указанием их диаметра в мм.
Облачность - указаны через наклонную черту общая и нижняя облачность в баллах и высота нижней границы облаков в метрах; квадратными скобками обозначены формы облаков: Ci - перистые, Cs - перисто-слоистые, Cc - перисто-кучевые, Ac - высококучевые, As - высокослоистые, Sc - слоисто-кучевые, Ns - слоисто-дождевые, Cu - кучевые, Cb - кучево-дождевые. Подробнее классификацию облаков см. в Атласе облаков (PDF).
T - Температура воздуха - температура, измеренная на высоте 2 м над землей.
Td - Температура точки росы - температура, при понижении до которой содержащийся в воздухе водяной пар достигнет насыщения.
f - Относительная влажность воздуха - влажноcть воздуха, измеренная на высоте 2 м над землей.
Te - Эффективная температура - температура, которую ощущает одетый по сезону человек в тени. Характеристика душности погоды. При расчете учитывается влияние влажности воздуха и скорости ветра на теплоощущения человека.
Tes - Эффективная температура на солнце - температура, которую ощущает человек, с поправкой на солнечный нагрев. Характеристика знойности погоды. Зависит от высоты солнца над горизонтом, облачности и скорости ветра. Ночью, в пасмурную погоду, а также при ветре 12 м/с и более поправка равна нулю.
P - Атмосферное давление - приведенное к уровню моря атмосферное давление.
Po - Атмосферное давление - измеренное на уровне метеостанции атмосферное давление.
Tmin - Минимальная температура - минимум температуры воздуха на высоте 2 м над землей.
Tmax - Максимальная температура - максимум температуры воздуха на высоте 2 м над землей.
R - Количество осадков - Количество выпавших осадков за период времени, мм. При наведении курсора мыши на число - период времени, за который выпало указанное количество осадков.
R24 - Количество осадков - Количество выпавших осадков за 24 часа, мм.
S - Снежный покров - Высота снежного покрова, см. При наведении курсора мыши на число - состояние снежного покрова и степень покрытия местности в баллах.